EW1647 Weather Reports


Display with metric or nautical units.
time (UTC)temp
F
wind
direction
speed
MPH
gust
MPH
rain 1hr
in
rain 24hr
in
rain mn
in
humidity
%
barometer
mb
20260510151628 53 254 2.0 7.0 0.00 0.00 0.00 93 1018.4
20260510144614 52 248 1.0 7.0 0.00 0.00 0.00 93 1018.2
20260510143106 52 245 2.0 9.0 0.00 0.00 0.00 93 1018.6
20260510141558 52 261 6.0 9.0 0.00 0.00 0.00 94 1018.6
20260510140051 51 74 1.0 5.0 0.00 0.00 0.00 94 1017.9
20260510134555 50 74 2.0 4.0 0.00 0.00 0.00 94 1017.4
20260510133050 50 74 3.0 6.0 0.00 0.00 0.00 94 1017.8
20260510131555 50 65 3.0 4.0 0.00 0.00 0.00 94 1018.2
20260510130048 49 57 3.0 4.0 0.00 0.00 0.00 94 1018.3
20260510124557 48 35 2.0 4.0 0.00 0.00 0.00 94 1018.4
20260510123045 48 35 2.0 3.0 0.00 0.00 0.00 93 1018.2
20260510121543 48 35 1.0 3.0 0.00 0.00 0.00 93 1018.1
20260510120042 49 35 1.0 4.0 0.00 0.00 0.00 93 1018.1
20260510114546 48 35 2.0 4.0 0.00 0.00 0.00 93 1017.8
20260510113041 48 35 2.0 3.0 0.00 0.00 0.00 92 1017.9
20260510111540 49 35 1.0 3.0 0.00 0.00 0.00 92 1018.1
20260510110038 49 35 1.0 2.0 0.00 0.00 0.00 92 1018.0
20260510104535 49 35 2.0 3.0 0.00 0.00 0.00 92 1017.6
20260510103033 49 35 1.0 3.0 0.00 0.00 0.00 91 1017.5
20260510101532 49 35 2.0 3.0 0.00 0.00 0.00 91 1017.4
20260510100041 49 35 0.0 0.0 0.00 0.00 0.00 91 1017.4
20260510094540 50 35 1.0 3.0 0.00 0.00 0.00 90 1017.2
20260510093025 50 35 0.0 3.0 0.00 0.00 0.00 89 1017.1
20260510091525 50 35 0.0 0.0 0.00 0.00 0.00 89 1017.0
20260510090024 50 35 0.0 0.0 0.00 0.00 0.00 88 1016.9
20260510084518 51 35 0.0 0.0 0.00 0.00 0.00 89 1016.9
20260510083022 51 35 0.0 0.0 0.00 0.00 0.00 88 1016.6
20260510081515 51 35 0.0 0.0 0.00 0.00 0.00 87 1016.6
20260510080024 52 35 0.0 0.0 0.00 0.00 0.00 87 1016.5
20260510074512 52 35 0.0 0.0 0.00 0.00 0.00 86 1016.7
20260510073008 52 35 0.0 1.0 0.00 0.00 0.00 85 1016.5
20260510071508 53 35 1.0 3.0 0.00 0.00 0.00 85 1016.6
20260510070004 53 35 1.0 3.0 0.00 0.00 0.00 84 1016.7
20260510064508 54 35 1.0 3.0 0.00 0.00 0.00 83 1016.7
20260510063003 54 35 2.0 3.0 0.00 0.00 0.00 82 1016.9
20260510061503 55 35 1.0 4.0 0.00 0.00 0.00 83 1016.8
20260510060002 55 35 2.0 5.0 0.00 0.00 0.00 82 1016.7
20260510054501 55 35 2.0 4.0 0.00 0.00 0.00 82 1016.7
20260510053116 55 35 1.0 3.0 0.00 0.00 0.00 82 1016.7
20260510051602 55 35 2.0 5.0 0.00 0.00 0.00 81 1016.7
20260510044600 56 34 2.0 4.0 0.00 0.00 0.00 79 1016.7
20260510043110 57 34 1.0 3.0 0.00 0.00 0.00 77 1016.6
20260510041657 57 34 1.0 4.0 0.00 0.00 0.00 76 1016.6
20260510034600 58 34 1.0 4.0 0.00 0.00 0.00 74 1016.4
20260510033133 59 34 0.0 6.0 0.00 0.00 0.00 73 1016.4
20260510031615 60 34 2.0 4.0 0.00 0.00 0.00 72 1016.5
20260510030058 60 34 1.0 4.0 0.00 0.00 0.00 71 1016.7
20260510024553 61 34 3.0 5.0 0.00 0.00 0.00 71 1016.7
20260510023050 62 31 1.0 3.0 0.00 0.00 0.00 70 1016.9
20260510021550 63 31 2.0 4.0 0.00 0.00 0.00 68 1017.0
20260510020051 64 30 2.0 9.0 0.00 0.00 0.00 67 1016.9
20260510014549 65 51 3.0 7.0 0.00 0.00 0.00 64 1017.2
20260510013044 66 48 3.0 6.0 0.00 0.00 0.00 62 1017.6
20260510011546 67 44 2.0 5.0 0.00 0.00 0.00 61 1017.7
20260510010043 67 45 0.0 5.0 0.00 0.00 0.00 61 1017.8
20260510004542 68 48 4.0 7.0 0.00 0.00 0.00 57 1017.7
20260510003040 68 5 1.0 5.0 0.00 0.00 0.00 57 1018.0
20260510001541 68 5 2.0 4.0 0.00 0.00 0.00 56 1018.2
20260510000057 68 5 3.0 5.0 0.00 0.00 0.00 55 1018.2
20260509234548 68 5 1.0 4.0 0.00 0.00 0.00 55 1018.4
20260509233034 69 5 1.0 4.0 0.00 0.00 0.00 54 1018.5
20260509231532 69 5 2.0 6.0 0.00 0.00 0.00 53 1018.7
20260509230035 69 13 3.0 6.0 0.00 0.00 0.00 56 1018.9
20260509224528 69 21 3.0 8.0 0.00 0.00 0.00 54 1019.3
20260509223022 69 16 2.0 4.0 0.00 0.00 0.00 56 1019.5
20260509221522 68 17 1.0 4.0 0.00 0.00 0.00 60 1019.6
20260509220023 69 19 3.0 6.0 0.00 0.00 0.00 60 1019.7
20260509214527 68 11 4.0 8.0 0.00 0.00 0.00 59 1019.6
20260509213016 68 14 3.0 5.0 0.00 0.00 0.00 61 1019.7
20260509211517 67 14 1.0 5.0 0.00 0.00 0.00 62 1019.9
20260509210011 67 16 1.0 4.0 0.00 0.00 0.00 63 1020.0
20260509204512 67 16 1.0 5.0 0.00 0.00 0.00 63 1020.1
20260509203012 67 12 3.0 5.0 0.00 0.00 0.00 63 1020.3
20260509201508 67 12 3.0 5.0 0.00 0.00 0.00 63 1020.4
20260509200004 66 11 1.0 5.0 0.00 0.00 0.00 65 1020.6
20260509194603 65 11 3.0 5.0 0.00 0.00 0.00 68 1020.8
20260509181522 60 355 3.0 5.0 0.00 0.00 0.00 76 1021.6
20260509180020 59 348 2.0 5.0 0.00 0.00 0.00 78 1021.7
20260509174517 59 347 2.0 4.0 0.00 0.00 0.00 79 1021.8
20260509173014 58 346 2.0 4.0 0.00 0.00 0.00 81 1021.9
20260509171511 57 346 1.0 5.0 0.00 0.00 0.00 84 1022.0
20260509170008 57 336 1.0 5.0 0.00 0.00 0.00 86 1022.0
20260509164505 56 297 2.0 5.0 0.00 0.00 0.00 87 1022.2
20260509163002 55 243 1.0 4.0 0.00 0.00 0.00 90 1022.2
20260509161603 54 238 2.0 3.0 0.00 0.00 0.00 93 1022.3
20260509160056 53 235 1.0 2.0 0.00 0.00 0.00 94 1022.4
20260509154554 52 235 0.0 3.0 0.00 0.00 0.00 94 1022.7
20260509153054 52 235 1.0 3.0 0.00 0.00 0.00 94 1022.7